Home   Weather   Bitburg   Past weeks

Flag for Germany Past Weather in Bitburg, Rhineland-Palatinate, Germany — Yesterday and Last 2 Weeks

Now
31 °F

Sunny.


Feels Like: 22 °F
Forecast: 28 / 38 °F
Wind: 10 mph from East

Location: Spangdahlem

Current Time: Dec 3, 2016 at 10:50:04 am

Latest Report: Dec 3, 2016 at 9:58 am


Visibility: N/A

Pressure: 30.25 "Hg

Humidity: 89%

Dew Point: 28 °F

Location of BitburgLocation

Past Weather in Bitburg — Graph

°F

Bitburg Temperature Yesterday

Maximum temperature yesterday: 45 °F (at 12:58 pm)
Minimum temperature yesterday: 35 °F (at 12:58 am)
Average temperature yesterday: 39 °F

High & Low Weather Summary for the Past Weeks

 TemperatureHumidityPressure
High59 °F (Nov 23, 2:58 pm)100% (Nov 18, 8:00 am)30.57 "Hg (Nov 18, 8:00 am)
Low19 °F (Nov 30, 6:58 am)48% (Nov 29, 12:58 pm)29.43 "Hg (Nov 20, 9:58 am)
Average40 °F85%30.03 "Hg
* Reported Nov 18 8:00 am — Dec 3 8:58 am, Bitburg, Weather by CustomWeather, © 2016

Note: Actual official high and low records may vary slightly from our data, if they occured in-between our weather recording intervals... More about our weather records

Advertising

Bitburg Weather History for the Previous 24 Hours

Scroll right to see more
 ConditionsComfort  
Time TempWeatherWind HumidityBarometerVisibility
8:58 am
Sat, Dec 3
29 °FSunny.10 mph93%30.25 "HgN/A
7:58 am29 °FClear.12 mph94%30.23 "HgN/A
6:58 am29 °FClear.10 mph95%30.21 "HgN/A
5:58 am28 °FClear.8 mph100%30.21 "HgN/A
5:03 am27 °FClear.7 mph100%30.19 "HgN/A
4:58 am27 °FLight freezing rain. Ice fog.6 mph100%30.21 "Hg6 mi
4:02 am28 °FChilly.No wind93%30.19 "HgN/A
3:59 am28 °FLight snow. Ice fog.3 mph93%30.19 "Hg0 mi
2:58 am30 °FClear.3 mph100%30.20 "HgN/A
1:58 am32 °FClear.3 mph100%30.20 "HgN/A
12:58 am34 °FClear.7 mph100%30.20 "HgN/A
11:58 pm
Fri, Dec 2
36 °FPassing clouds.5 mph93%30.21 "HgN/A
10:58 pm39 °FOvercast.8 mph92%30.20 "HgN/A
9:58 pm39 °FOvercast.10 mph91%30.20 "HgN/A
9:02 pm39 °FOvercast.9 mph93%30.19 "HgN/A
8:02 pm39 °FMostly cloudy.5 mph93%30.19 "HgN/A
6:58 pm41 °FOvercast.5 mph97%30.19 "HgN/A
5:58 pm42 °FMostly cloudy.8 mph93%30.19 "HgN/A
4:58 pm43 °FOvercast.No wind93%30.19 "HgN/A
3:58 pm45 °FPartly sunny.No wind87%30.18 "HgN/A
2:58 pm45 °FOvercast.5 mph87%30.18 "HgN/A
1:58 pm45 °FPartly sunny.6 mph87%30.19 "HgN/A
12:58 pm45 °FDrizzle. Cloudy.7 mph87%30.20 "HgN/A
11:58 am43 °FFog.7 mph93%30.21 "Hg5 mi
10:58 am39 °FFog.6 mph100%30.22 "Hg4 mi
10:00 am37 °FFog.6 mph100%30.21 "Hg2 mi
Weather by CustomWeather, © 2016

See weather overviewHow to use our weather pages